Regional Weather Roundup
Issued by NWS

Home | Current Version | Previous Version | Graphics & Text | Print | Product List | Glossary Off
Versions: 1 2 3 4 5 6 7 8 9 10 11 12 13 14 15 16 17 18 19 20 21 22 23 24 25 26 27 28 29 30 31 32 33 34 35 36 37 38 39 40 41 42 43 44 45 46 47 48 49 50

000
ASUS43 KTOP 070259
RWRKS

WEATHER ROUNDUP FOR KANSAS
NATIONAL WEATHER SERVICE GOODLAND KS
900 PM CST FRI MAR 06 2015

NOTE:  "FAIR" INDICATES FEW OR NO CLOUDS BELOW 12,000 FEET WITH NO
SIGNIFICANT WEATHER AND/OR OBSTRUCTIONS TO VISIBILITY.

KSZ001>006-013>018-027>032-041>047-070400-
NORTHWEST KANSAS

CITY           SKY/WX    TMP DP  RH WIND       PRES   REMARKS
GOODLAND       CLEAR     42  24  49 W12       30.24R
HAYS           CLEAR     41  16  36 SW9       30.21R
HILL CITY      CLEAR     42  15  33 W7        30.20R
RUSSELL        CLEAR     45  17  32 SW8       30.19R
$$

KSZ061>065-074>080-084>089-070400-
SOUTHWEST KANSAS

CITY           SKY/WX    TMP DP  RH WIND       PRES   REMARKS
DODGE CITY     CLEAR     47  18  31 S6        30.26R
ELKHART          N/A     43  27  53 S9          N/A
GARDEN CITY    CLEAR     40  21  46 S5        30.24R
GREAT BEND     CLEAR     41  18  38 SW12      30.23R
LIBERAL        CLEAR     45  27  49 S3        30.27S
$$

KSZ066>073-081>083-090>101-070400-
SOUTHEAST KANSAS

CITY           SKY/WX    TMP DP  RH WIND       PRES   REMARKS
CHANUTE        CLEAR     41  28  60 S10       30.30S
COFFEYVILLE    CLEAR     44  27  51 S13       30.34R
HUTCHINSON     CLEAR     45  29  53 S8        30.24R
MEDICINE LODGE   N/A     45  31  58 S9        30.26R
NEWTON         CLEAR     46  27  46 S18       30.26R
PARSONS        CLEAR     42  28  57 S7        30.33S
WICHITA INTL   CLEAR     45  29  53 S14       30.27R
WICHITA JABRA  CLEAR     48  28  46 S17G25    30.26S
WINFIELD       CLEAR     45  29  53 S10       30.32R
$$

KSZ007>012-019>026-033>040-048>060-102>105-070400-
NORTHEAST KANSAS

CITY           SKY/WX    TMP DP  RH WIND       PRES   REMARKS
CONCORDIA      PTCLDY    48  18  30 SW8       30.16S
EMPORIA        CLEAR     45  28  51 S18       30.23S
LAWRENCE       CLEAR     47  27  45 SW9       30.22R
MANHATTAN      CLEAR     46  29  51 SW13      30.20R
OLATHE IND     CLEAR     45  28  51 S13       30.24R
OLATHE EXE     CLEAR     45  27  49 SW8       30.22S
SALINA         CLEAR     41  22  46 S8        30.21R
TOPEKA BILLARD CLEAR     48  27  44 S8        30.21S
TOPEKA FORBES  CLEAR     46  28  49 S10       30.21R
$$


USA.gov is the U.S. government's official web portal to all federal, state and local government web resources and services.